STARLINK-34657, 64775

Orbit data source: Space-Track

STARLINK-34657, 64775 is a payload satellite owned by SpaceX/Seattle (US) in LEO that was launched on Tue, 08 Jul 2025 UTC via an FALCON 9 launch vehicle from the Air Force Eastern Test Range (AFETR). Payload-class satellites include a variety of spacecraft equipped with specific instruments for various scientific and technological missions. These include communications satellites like Starlink; space stations such as the ISS; scientific satellites like the Hubble; Earth observation satellites from companies like Planet Labs, Umbra, and HawkEye 360; GPS; miniature CubeSats for education and research; and military/defense satellites.

Loading next visibility...
Identifier
64775, 2025-147W
Orbit
LEO
Country
Flag of USUS
Related business
Manufacturer
SpaceX/Seattle
Mission
Operational spacecraft
Bus & Motor
STARLINK V2MO, Unknown motor
Mass
575 kg wet, ~530 kg dry
Launch date (UTC)
2025-07-08 (2 months ago)
Launch vehicle
FALCON 9
Launch site
Air Force Eastern Test Range (AFETR)
Object type
Payload
Rocket body
Debris
Shape & HBR
Unknown
Radar Cross Section
Large (>1 m²)

Expand to show TLE details & history
Last TLE update: 20 hours ago

TLE from 20 hours ago
0 STARLINK-34657
1 64775U 25147W   25242.18802575  .00057729  00000-0  14415-2 0  9996
2 64775  53.1600  53.5610 0001199  70.9909 289.1225 15.39635931  9418
Epoch: 2025-08-30T04:30Z
TLE epoch observation values (Epoch: 2025-08-30T04:30:45.424Z)
Latitude
-0.00009°
Longitude
7.24575°
Altitude
447.82 km
Speed
7.645 km/s
True Right ascension
03h 34m 14s
True Declination
0° 00' 00"
Sunlit
Object was in daylight at epoch
Visualization orbit readout
Latitude
Unknown
Longitude
Unknown
Altitude
Unknown
Speed
Unknown
Apparent Right ascension
Unknown
Apparent Declination
Unknown
Sunlit
N/A
Visualization observer readout
Local Sidereal Time
16:13:52
Azimuth
Unknown
Elevation
Unknown
Doppler factor
Unknown
Orbital elements
Apogee altitude
448.261 km
Perigee altitude
446.624 km
Semi-major axis
6,825.58 km
Eccentricity
0.00012
Inclination
53.16°
RAAN
53.561°
Arg. of periapsis
70.9909°
True anomaly
289.10952°
Mean anomaly
289.1225°
Eccentric anomaly
289.11601°
Mean motion
3.84888 °/min
Orbital period
93.53 mins
BSTAR
0.0014415
Loading maneuver chart data...
Computing Atmospheric mass density...
Loading historical data...
Loading historical data...
Loading historical data...
Loading historical data...
Loading historical data...
Loading historical data...
Loading historical data...

Documentation

Showing up to 5 results
|